Regional Weather Roundup
Issued by NWS

Home | Current Version | Previous Version | Graphics & Text | Print | Product List | Glossary Off
Versions: 1 2 3 4 5 6 7 8 9 10 11 12 13 14 15 16 17 18 19 20 21 22 23 24 25 26 27 28 29 30 31 32 33 34 35 36 37 38 39 40 41 42 43 44 45 46 47 48 49 50

000
ASUS43 KMKX 301959
RWRWI

WISCONSIN REGIONAL WEATHER ROUNDUP
NATIONAL WEATHER SERVICE MILWAUKEE/SULLIVAN WI
300 PM CDT MON MAR 30 2015

NOTE: "FAIR" INDICATES FEW OR NO CLOUDS BELOW 12,000 FEET WITH NO
SIGNIFICANT WEATHER AND/OR OBSTRUCTIONS TO VISIBILITY.

WIZ001-002-006>008-014>016-023>028-302100-
NORTHWEST WISCONSIN

CITY           SKY/WX    TMP DP  RH WIND       PRES   REMARKS
SUPERIOR ARPT  FAIR      51  26  38 CALM      29.84F
ASHLAND        PTSUNNY   53  21  28 VRB5      29.85F
HAYWARD        LGT RAIN  44  31  60 SE5       29.87F
SIREN          PTSUNNY   46  35  66 SE7       29.87F
CUMBERLAND     LGT RAIN  41  36  81 E9        29.87F
RICE LAKE      DRIZZLE   44  36  74 E5        29.90F
CHETEK         LGT RAIN  43  38  83 E5        29.90F
LADYSMITH      CLOUDY    50  31  47 CALM      29.90F
EAU CLAIRE     NOT AVBL
MENOMONIE      PTSUNNY   46  40  77 E8        29.90F
NEW RICHMOND   CLOUDY    48  37  65 E13       29.87F
OSCEOLA        FAIR      48  39  70 E12G17    29.89F
$$

WIZ003>005-009-010-017-018-302100-
NORTH CENTRAL WISCONSIN

CITY           SKY/WX    TMP DP  RH WIND       PRES   REMARKS
MANITOWISH WTR FAIR      47  22  37 CALM      29.86F
ARBOR VITAE    FAIR      52  23  32 W5        29.87F
WOODRUFF       FAIR      52  23  32 W5        29.87F
RHINELANDER    PTSUNNY   49  19  30 NW8       29.87F
EAGLE RIVER    FAIR      49  17  28 NW9       29.86F
LAND O LAKES   FAIR      48  18  29 NW12      29.86F
PHILLIPS       PTSUNNY   50  22  33 SW6       29.87F
TOMAHAWK       PTSUNNY   51  19  28 NW8G17    29.88F
MEDFORD        CLOUDY    46  32  59 SW9       29.89F
MERRILL        FAIR      51  23  33 NW8       29.88F
$$

WIZ029-030-035-036-043>047-302100-
CENTRAL WISCONSIN

CITY           SKY/WX    TMP DP  RH WIND       PRES   REMARKS
WAUSAU         CLOUDY    52  27  38 W14       29.87F
MOSINEE        MOSUNNY   52  27  37 W10       29.91F
MARSHFIELD     LGT RAIN  46  36  68 NW5       29.91F
STEVENS POINT  CLOUDY    49  28  44 W9        29.93F
WAUPACA        FAIR      56  25  30 W14G23    29.93F
WAUTOMA        NOT AVBL
WISC RAPIDS    LGT RAIN  48  35  60 NW8       29.94F
CAMP DOUGLAS   LGT RAIN  52  37  58 N10       29.94F
$$

WIZ011>013-019>022-031-037>040-048>050-302100-
NORTHEAST WISCONSIN

CITY           SKY/WX    TMP DP  RH WIND       PRES   REMARKS
ANTIGO         FAIR      50  24  36 NW10      29.88F
SHAWANO        FAIR      57  22  26 W9        29.90F
OCONTO         FAIR      55  22  28 NW9       29.89F
STURGEON BAY   FAIR      45  30  57 SE14      29.93S
GREEN BAY      FAIR      55  28  35 NW7G17    29.91F
MANITOWOC      NOT AVBL
APPLETON       PTSUNNY   54  21  28 W16G23    29.92F
CLINTONVILLE   FAIR      54  19  26 W12       29.91S
OSHKOSH        PTSUNNY   54  30  40 NW12      29.92F
$$

WIZ032>034-041-042-053>061-302100-
SOUTHWEST WISCONSIN

CITY           SKY/WX    TMP DP  RH WIND       PRES   REMARKS
LA CROSSE      FAIR      57  29  34 SE7       29.90F
SPARTA         CLOUDY    53  29  40 CALM      29.94F
VIROQUA        FAIR      52  28  39 CALM      29.93F
BOSCOBEL       PTSUNNY   61  30  31 NW5       29.92F
PRAIRIE DU CHI CLOUDY    59  27  29 N3        29.92F
PLATTEVILLE    FAIR      63  31  29 SW13      29.93F
$$

WIZ056-057-062-063-064-067-068-302100-
SOUTH CENTRAL WISCONSIN

CITY           SKY/WX    TMP DP  RH WIND       PRES   REMARKS
REEDSBURG      FAIR      55  32  42 N7        29.94F
BARABOO/DELLS  FAIR      54  31  41 N6        29.94F
LONE ROCK      NOT AVBL
MINERAL POINT  FAIR      55  27  33 N6        29.94F
MADISON        CLOUDY    56  30  37 NW10      29.94F
MIDDLETON      CLOUDY    57  28  33 NW8       29.95F
WATERTOWN      CLOUDY    54  32  42 W16G22    29.96R
MONROE         FAIR      61  32  33 N12       29.94F
JANESVILLE     CLOUDY    59  27  29 NW13      29.95F
$$

WIZ051-052-058>065-066-070>072-302100-
SOUTHEAST WISCONSIN

CITY           SKY/WX    TMP DP  RH WIND       PRES   REMARKS
MILWAUKEE      PTSUNNY   58  27  30 NW12G24   29.95F
WAUKESHA       CLOUDY    55  28  35 W16       29.96
MILWAUKEE/TIMM MOSUNNY   57  25  28 W13G23    29.95F
RACINE         PTSUNNY   58  27  30 W15G25    29.96F
BURLINGTON     FAIR      56  28  33 W16G24    29.96F
KENOSHA        CLOUDY    59  31  34 W17G23    29.95F
FOND DU LAC    FAIR      56  28  34 W12       29.93F
SHEBOYGAN      FAIR      54  29  38 NW13G22   29.93F
WEST BEND      PTSUNNY   54  28  37 W9        29.94F
JUNEAU         PTSUNNY   53  31  43 W16G23    29.96S
$$

LSZ147-162-302100-
LAKE SUPERIOR

STATION/POSITION TIME  TEMP    WIND        PRES    WAVE
                       AIR SEA DIR/SP/G            HT/PER
                 (UTC) (F)     (DEG/KT/KT) (MB)    (FT/S)
DEVILS ISLAND    1900   46     220/  5/  6 1012.3F
PORT WING        1900   41     320/  5/  5 1011.9F
SAXON HARBOR     1900   44      70/  6/  8 1011.9
$$

LMZ867-665-643>646-302100-
LAKE MICHIGAN

STATION/POSITION TIME  TEMP    WIND        PRES    WAVE
                       AIR SEA DIR/SP/G            HT/PER
                 (UTC) (F)     (DEG/KT/KT) (MB)    (FT/S)
NORTHPORT PIER   1900   39     130/  4/  5 1013.5S
KEWAUNEE LAKESHO 1900   53     300/  9/ 14 1012.1F
SHEBOYGAN LAKESH 1900   52     260/ 13/ 16 1014.4F
PORT WASHINGTON  1900   56     290/  7/ 16 1014.6F
MILWAUKEE LAKESH 1900   55     280/ 11/ 16   N/A
KENOSHA   LAKESH 1900   56     260/ 15/ 20 1014.6
$$

TC  - TEMPERATURE IN CELSIUS
VSB - VISIBILITY IN STATUTE MILES
WCI - WIND CHILL INDEX
HX  - HEAT INDEX




USA.gov is the U.S. government's official web portal to all federal, state and local government web resources and services.